EHI
0 0 0 0 0 0 0 0 0 0 0 0 0 1 4 8 14 23 38 54 63 63 60 62 65 65 64 61 57 53 48 43 41 41 39 37 31 24 17 12 9 10 11 9
0 0 0 0 0 0 0 0 0 0 0 0 0 1 4 8 14 22 36 53 64 65 64 65 65 64 63 60 56 53 50 44 41 39 38 35 30 23 18 13 10 12 12 10
0 0 0 0 0 0 0 0 0 0 0 0 0 1 4 8 12 20 33 49 64 68 67 66 64 62 61 58 55 54 52 46 41 37 35 33 28 22 18 14 12 12 11 8
0 0 0 0 0 0 0 0 0 0 0 0 0 1 3 7 12 19 30 45 58 65 65 63 61 60 59 56 54 53 52 48 42 36 33 32 26 19 15 14 12 10 8 6
0 0 0 0 0 0 0 0 0 0 0 0 0 0 1 6 11 15 24 38 50 56 59 58 57 58 57 53 51 50 49 46 42 36 32 29 23 16 13 12 10 8 6 4
0 0 0 0 0 0 0 0 0 0 0 0 0 0 1 4 8 11 17 29 42 50 53 54 54 55 53 50 48 46 44 42 38 33 28 24 18 13 10 10 8 7 6 5
0 0 0 0 0 0 0 0 0 0 0 0 0 0 0 2 5 9 15 25 36 42 44 47 49 50 48 45 43 42 40 39 34 28 23 18 12 8 7 6 6 6 6 5
0 0 0 0 0 0 0 0 0 0 0 0 0 0 0 2 5 11 17 25 33 34 34 38 42 42 39 38 38 38 37 36 31 24 19 14 8 4 3 3 3 3 4 4
0 0 0 0 0 0 0 0 0 0 0 0 0 0 0 2 7 13 18 24 27 27 29 33 36 35 32 32 32 33 32 30 27 21 16 12 7 3 1 1 1 1 1 2
0 0 0 0 0 0 0 0 0 0 0 0 0 0 0 2 7 12 15 17 19 21 25 31 33 31 30 29 29 28 26 24 22 18 15 13 10 5 2 1 0 0 0 1
0 0 0 0 0 0 0 0 0 0 0 0 0 0 0 1 4 7 9 11 12 16 22 26 28 28 27 27 27 28 25 21 18 16 15 14 12 9 5 1 0 0 0 0
0 0 0 0 0 0 0 0 0 0 0 0 0 0 0 0 1 3 6 7 10 14 17 21 23 24 23 24 27 28 25 21 17 14 12 12 11 9 5 1 0 0 0 0
0 0 0 0 0 0 0 0 0 0 0 0 0 0 0 0 1 3 5 8 10 12 15 18 20 21 20 22 26 26 23 19 14 10 8 7 6 5 3 1 0 0 0 0
0 0 0 0 0 0 0 0 0 0 0 0 0 0 1 2 2 3 6 10 12 14 15 17 18 18 17 19 23 24 20 16 12 7 5 5 4 3 2 1 0 0 0 0
0 0 0 0 0 0 0 0 0 0 0 0 1 1 3 5 5 5 8 12 16 17 17 17 17 16 15 16 19 20 19 16 12 8 6 5 5 4 2 1 0 0 0 0
0 0 0 0 0 0 0 0 1 0 0 1 2 3 6 8 7 7 9 13 16 20 20 18 16 15 13 13 15 16 17 17 14 11 9 6 4 4 3 2 1 0 0 0
0 0 0 0 0 0 0 0 0 0 1 2 4 5 6 8 8 7 8 10 13 18 20 18 16 14 12 10 10 12 15 17 17 15 12 8 5 4 4 3 2 1 1 1
0 0 0 0 0 0 1 1 0 1 2 4 5 5 6 8 10 9 8 8 10 13 16 16 14 13 12 10 7 9 12 15 17 17 14 10 7 5 5 4 4 3 3 3
0 0 0 0 0 0 1 1 1 1 2 3 4 4 5 9 12 12 11 9 8 10 12 13 12 11 12 11 8 9 10 11 13 15 14 12 9 8 8 8 7 6 5 5
0 0 0 0 0 0 1 1 1 1 1 2 2 3 4 7 9 11 10 9 8 8 10 11 11 9 10 10 9 8 7 7 9 11 12 11 9 10 11 11 10 8 6 5
0 0 0 0 0 0 0 0 0 1 1 2 2 3 3 4 5 6 5 5 5 6 9 11 10 9 9 10 8 6 4 4 6 7 8 7 7 10 12 11 10 9 7 5
0 0 0 0 0 0 0 0 0 1 2 3 2 2 2 2 2 1 1 2 2 4 7 10 10 10 10 9 7 4 3 3 4 5 6 5 6 8 10 9 9 9 8 7
0 0 0 0 0 0 0 0 0 1 2 2 1 1 1 1 0 0 0 1 2 3 5 8 9 10 10 9 6 4 3 3 2 4 4 4 5 7 7 7 8 8 8 8
0 0 0 0 0 0 0 0 0 0 0 0 0 0 0 0 0 0 0 1 2 3 3 5 7 8 8 7 6 5 4 3 2 2 3 3 5 7 7 6 6 6 7 7
0 0 0 0 0 0 0 0 0 0 0 0 1 0 0 0 0 0 0 0 1 1 2 3 4 5 5 5 5 5 5 4 3 2 3 4 6 7 6 4 4 3 4 4
0 0 0 0 0 0 0 0 0 0 0 0 1 0 0 0 0 0 0 0 0 0 1 2 3 3 3 3 4 5 6 5 4 3 3 4 6 6 5 4 3 2 1 2
Wind_Speed
4 4 6 9 9 8 6 7 8 9 7 1 4 5 6 5 7 10 11 12 14 14 12 12 13 14 13 12 12 12 12 11 9 7 7 7 6 5 5 5 7 7 7 7
2 9 11 8 7 7 9 10 10 8 6 2 3 5 4 5 7 10 13 13 13 11 10 12 12 13 14 14 14 13 12 11 10 7 6 5 5 4 5 5 6 7 7 7
11 8 8 10 10 10 11 10 10 7 5 3 2 3 3 2 2 3 6 10 13 16 16 14 13 13 13 14 15 13 13 12 10 9 5 5 4 3 3 4 5 6 7 7
8 11 10 10 12 11 11 11 8 5 2 2 1 2 6 2 1 3 5 7 10 13 14 14 13 13 14 13 12 11 12 12 10 10 9 9 7 6 5 5 4 5 6 7
8 8 11 13 15 12 11 9 5 3 3 1 3 1 6 1 1 3 6 8 8 11 13 14 14 14 13 12 11 11 11 11 10 10 11 10 7 5 4 4 6 5 5 6
10 8 8 12 12 10 8 3 2 4 5 1 3 2 6 2 4 3 3 5 7 10 11 10 9 9 9 9 10 11 11 11 11 11 11 10 10 8 8 7 7 6 4 4
8 10 9 7 6 6 3 4 3 4 4 3 3 1 6 5 4 4 5 5 7 8 10 11 11 10 10 12 12 11 12 11 11 11 11 11 11 11 11 9 8 7 5 4
6 8 8 7 9 7 5 10 9 5 4 4 2 2 6 5 2 1 1 4 6 6 7 10 12 12 11 12 12 12 12 11 11 11 10 10 10 8 7 8 7 7 6 6
7 7 7 7 7 9 5 5 9 8 3 1 3 4 5 3 4 4 3 3 4 7 9 10 10 11 11 11 11 12 12 10 10 10 10 9 10 9 8 8 7 6 6 6
8 4 6 6 3 5 9 8 6 7 6 2 2 2 4 3 0 2 3 1 3 4 6 8 9 10 9 10 9 10 10 10 10 10 10 9 9 9 8 8 8 8 7 7
7 5 6 2 3 6 4 5 6 6 6 6 3 5 5 5 4 3 2 3 3 4 5 7 7 8 9 9 9 9 9 8 8 9 8 8 8 8 8 8 9 8 7 8
5 6 4 5 3 4 6 7 8 7 4 5 5 5 3 4 4 4 3 3 3 3 4 6 7 7 8 9 10 9 9 9 8 8 7 7 7 8 9 9 9 8 8 8
4 6 3 4 6 4 3 3 5 7 6 5 5 3 1 2 2 1 3 3 2 3 3 4 6 7 9 10 10 10 9 9 9 8 8 8 8 9 9 9 8 8 8 8
6 5 7 9 7 3 2 1 4 7 5 4 5 5 1 3 2 1 1 2 3 3 3 5 5 6 7 8 10 10 9 9 9 9 9 9 9 9 9 8 8 8 8 9
6 4 3 4 5 4 3 2 3 4 6 6 6 6 4 4 4 2 2 2 3 2 3 4 4 4 5 6 7 8 9 9 9 9 9 9 8 8 8 8 8 8 8 9
5 4 3 2 3 5 5 4 4 4 5 7 8 4 2 2 4 4 3 3 3 2 2 3 4 5 5 6 7 7 8 9 9 10 10 9 8 8 9 8 8 8 8 7
3 4 4 0 1 5 2 1 3 4 4 7 5 4 4 4 4 3 3 4 4 3 2 1 3 4 5 5 6 7 8 8 9 9 9 9 9 9 9 9 8 9 9 8
4 4 4 3 4 3 4 0 6 9 6 6 7 6 6 6 3 3 4 5 4 3 2 2 1 1 2 2 3 5 5 7 9 9 9 9 9 9 9 9 9 9 7 8
4 6 4 4 3 1 1 2 3 7 5 4 9 7 6 6 7 6 5 5 3 2 1 1 1 1 1 1 2 4 4 5 7 8 8 10 10 10 9 9 9 8 7 7
5 6 6 4 4 3 3 3 1 9 4 2 5 5 4 4 4 1 3 5 5 4 3 3 3 2 1 1 1 4 4 4 5 6 7 7 8 10 10 10 8 6 7 7
4 4 4 4 3 1 4 5 2 5 4 1 3 4 4 3 3 2 3 4 5 5 5 5 3 2 1 1 1 3 3 4 5 4 5 6 7 8 9 8 7 6 7 7
3 3 2 3 3 3 4 3 3 4 3 4 5 5 7 6 5 5 5 5 6 6 7 6 5 4 3 2 2 2 1 2 2 3 4 5 5 6 6 6 6 6 7 7
2 2 3 3 3 0 3 4 4 5 6 5 5 5 7 7 6 6 5 5 6 7 6 6 5 5 4 3 3 2 1 0 2 3 4 4 5 5 5 6 6 5 6 6
2 2 4 5 4 4 6 6 6 7 8 7 6 6 7 8 7 6 6 6 6 7 6 6 6 6 6 5 4 3 2 0 1 3 3 3 4 4 4 4 4 4 5 5
1 2 4 5 4 6 6 6 6 8 8 9 9 8 8 9 9 7 6 6 6 6 6 7 7 7 6 5 5 5 4 3 2 2 3 3 4 4 4 4 3 3 2 3
2 1 4 4 4 5 4 3 6 8 7 8 9 9 8 8 8 8 6 5 6 6 6 7 8 7 7 7 7 7 6 4 4 4 3 3 3 4 5 5 6 8 6 7
Wind_Direction
215 166 213 219 208 210 241 266 273 276 280 275 245 240 238 203 173 169 169 170 176 184 177 169 167 164 159 163 165 167 165 167 163 160 160 156 158 161 160 165 164 160 159 154
237 235 226 218 225 236 249 260 269 278 276 246 236 242 231 196 188 176 172 172 170 161 159 166 164 165 167 171 171 170 171 171 171 166 161 156 148 158 162 164 163 161 159 159
210 234 215 222 235 241 250 241 242 242 283 329 62 320 282 250 122 147 164 165 166 164 165 167 169 171 171 174 175 175 174 171 169 159 146 136 125 123 138 158 165 170 168 168
234 238 232 228 235 229 252 245 233 229 206 293 68 259 291 269 86 154 157 157 165 165 167 170 172 172 176 178 174 173 173 171 168 164 161 160 164 167 173 168 168 171 174 173
235 216 217 229 235 227 233 239 226 210 163 77 5 123 284 350 208 217 194 171 168 169 169 173 176 176 174 172 171 171 168 170 171 171 169 167 168 168 151 153 165 173 178 179
244 252 223 224 235 229 229 242 7 44 75 57 270 169 272 256 220 233 237 180 168 167 166 167 166 161 161 165 170 172 173 176 176 174 174 174 171 166 161 167 175 180 180 184
264 262 251 233 234 254 205 113 39 3 18 249 269 176 255 265 252 205 201 179 168 159 159 157 157 162 168 171 175 177 176 179 180 179 179 180 177 173 177 178 181 181 180 187
220 259 242 218 201 207 196 145 157 183 207 261 317 241 265 284 300 357 139 147 152 156 164 165 166 172 176 176 176 175 179 180 182 183 183 180 178 177 181 182 179 184 188 192
198 242 253 231 205 178 179 174 165 137 147 127 285 292 308 351 29 37 66 114 158 177 177 169 170 175 176 177 178 177 178 180 184 185 181 181 181 180 180 180 180 182 187 188
182 240 268 245 203 197 169 159 106 117 143 194 269 271 244 262 348 43 47 133 188 178 173 168 170 178 179 177 174 173 175 182 184 184 186 186 183 181 178 177 185 186 189 188
179 195 283 330 184 194 146 122 116 124 146 150 195 260 228 196 173 161 189 205 178 181 180 173 176 177 173 171 171 174 176 178 182 185 187 184 181 179 176 180 188 188 188 187
181 155 229 256 257 173 144 154 139 141 173 155 157 252 283 165 163 165 183 205 186 173 181 176 171 173 170 171 174 177 179 181 185 183 184 186 182 179 180 183 187 185 184 183
155 133 147 330 340 18 90 120 133 130 124 140 146 234 327 101 96 160 188 195 175 155 166 173 169 176 179 178 178 179 180 181 181 178 178 183 184 183 183 184 183 180 179 178
128 122 157 186 205 176 116 98 117 117 133 160 175 174 172 112 117 198 201 197 155 143 166 169 176 182 186 185 181 180 181 178 176 174 175 183 188 185 183 182 180 180 180 178
99 115 140 167 161 122 110 101 98 122 153 153 168 152 177 166 151 165 160 115 99 128 166 168 174 177 183 186 185 183 181 178 176 174 178 187 187 180 179 181 182 180 181 182
68 109 97 68 105 91 70 56 77 89 113 120 118 112 140 133 98 85 75 82 76 77 164 164 164 168 184 187 183 184 187 183 176 180 183 182 181 181 182 182 181 180 182 180
56 94 98 150 67 75 56 27 88 89 103 129 139 167 137 107 94 102 87 84 70 40 27 128 177 183 190 193 185 184 188 181 179 183 184 181 182 185 186 185 182 184 183 180
115 92 104 97 72 136 238 298 109 99 80 98 106 106 108 113 105 81 82 86 72 65 46 19 351 217 201 185 176 176 176 178 182 185 186 187 189 190 187 183 186 188 184 184
136 120 103 101 113 127 321 10 112 112 68 76 110 108 110 116 85 55 45 64 60 36 33 20 330 252 144 138 168 167 164 175 182 189 193 192 190 189 187 189 190 187 183 185
66 95 106 113 120 176 249 312 74 101 80 10 103 114 122 100 87 54 22 34 36 24 28 28 3 9 41 3 160 159 167 175 191 196 196 192 189 186 187 190 188 182 181 186
57 62 105 122 125 218 287 301 31 113 184 188 99 104 97 90 131 128 37 32 28 24 22 25 20 18 16 357 122 149 170 195 202 194 183 182 189 191 188 185 183 179 181 181
124 121 126 122 130 231 317 39 96 152 143 104 92 95 99 101 92 75 55 36 30 27 24 22 24 28 26 43 87 123 180 223 196 176 174 177 179 184 181 175 181 179 177 178
80 147 140 131 145 139 26 88 100 119 112 101 98 96 103 94 82 71 60 48 40 34 26 20 30 37 33 37 53 71 341 304 170 167 176 182 177 179 173 169 175 171 173 176
10 54 96 90 83 71 63 72 70 81 92 97 100 97 97 96 89 74 60 51 42 37 30 27 31 39 33 28 32 16 350 1 141 165 174 170 163 161 156 151 162 166 173 178
321 55 82 96 120 85 62 68 79 84 88 89 85 86 92 96 89 82 68 54 47 42 35 36 36 36 31 26 28 17 12 35 89 120 135 136 133 133 123 105 95 126 133 176
341 141 140 166 179 140 140 113 98 94 93 97 97 88 78 86 91 84 72 60 55 48 41 40 36 32 30 33 31 19 14 34 69 91 97 108 112 114 116 117 97 66 78 82